Regional Weather Roundup
Issued by NWS

Home | Current Version | Previous Version | Text Only | Print | Product List | Glossary On
Versions: 1 2 3 4 5 6 7 8 9 10 11 12 13 14 15 16 17 18 19 20 21 22 23 24 25 26 27 28 29 30 31 32 33 34 35 36 37 38 39 40 41 42 43 44 45 46 47 48 49 50
000
ASUS43 KFSD 070110
RWRSD

WEATHER ROUNDUP FOR SOUTH DAKOTA
NATIONAL WEATHER SERVICE SIOUX FALLS SD
700 PM CST SAT FEB 06 2016

NOTE: "FAIR" INDICATES FEW OR NO CLOUDS BELOW 12,000 FEET WITH NO
SIGNIFICANT WEATHER AND/OR OBSTRUCTIONS TO VISIBILITY.


SDZ001>005-009-010-012>017-070200-
NORTHWEST AND NORTH CENTRAL SOUTH DAKOTA

CITY           SKY/WX    TMP DP  RH WIND       PRES   REMARKS
BUFFALO          N/A     43  20  39 NW35G47   29.83R
FAITH            N/A     40  24  53 MISG      29.85F
MOBRIDGE       CLOUDY    47  22  37 W15       29.75R
$$

SDZ012>016-024>037-041>051-057-063-072>074-070200-
SOUTHWEST AND SOUTH CENTRAL SOUTH DAKOTA

CITY           SKY/WX    TMP DP  RH WIND       PRES   REMARKS
RAPID CTY ARPT CLOUDY    39  27  62 NW38G53   29.93R
PIERRE         CLOUDY    44  29  55 W14       29.86R
CUSTER         CLOUDY    34  20  56 W10       29.94R WCI  26
ELLSWORTH AFB  CLEAR     39  28  63 NW41G52   29.92R
PHILIP         CLOUDY    41  31  67 NW10      29.92R
PINE RIDGE     CLOUDY    42  25  50 W18       29.94R
SPEARFISH      MIX PCPN  39  21  48 W26G46    29.98S
WINNER         FAIR      39  28  64 W10       29.85R
$$

SDZ004>011-016>023-039-040-070200-
NORTHEAST SOUTH DAKOTA

CITY           SKY/WX    TMP DP  RH WIND       PRES   REMARKS
ABERDEEN       CLOUDY    37  31  78 S12       29.76F
WATERTOWN      CLOUDY    33  27  78 SW10      29.78R WCI  25
BROOKINGS      CLOUDY    33  27  78 S5        29.81S WCI  29
SISSETON         N/A     38  31  76 W18G28    29.74R
$$

SDZ017-020-022-023-036>040-048>070-070200-
SOUTHEAST SOUTH DAKOTA

CITY           SKY/WX    TMP DP  RH WIND       PRES   REMARKS
SIOUX FALLS    CLOUDY    33  26  75 SW9       29.85F WCI  25
HURON          CLOUDY    37  31  78 S7        29.80S
CHAMBERLAIN    CLOUDY    40  30  68 W10       29.84R
MITCHELL       CLOUDY    40  32  73 SW9       29.83S
YANKTON        CLOUDY    37  27  65 SW10      29.87S
$$

ABBREVIATIONS USED IN REMARKS
   TC - TEMPERATURE IN CELSIUS
  WCI - WIND CHILL INDEX
   HX - HEAT INDEX
  VSB - VISIBILITY




USA.gov is the U.S. government's official web portal to all federal, state and local government web resources and services.